This is the latest recevied weather packets stored in our database for station/object VR2HK-13. If no packets are shown the sender has not sent any weather packets the latest 10 day(s).
| Time | Temp. | Humidity | Pressure | Rain* | Wind** | Luminosity | Snow |
|---|---|---|---|---|---|---|---|
| 1777356216 | 27.22° C | 81% | 1009.6 hPa | 30.48 mm | - | - | - |
| 1777356207 | 27.22° C | 81% | 1009.6 hPa | 30.48 mm | - | - | - |
| 1777355916 | 27.22° C | 81% | 1009.6 hPa | 32 mm | - | - | - |
| 1777355898 | 27.22° C | 81% | 1009.6 hPa | 32 mm | - | - | - |
| 1777355616 | 27.22° C | 81% | 1009.6 hPa | 33.53 mm | - | - | - |
| 1777355587 | 27.22° C | 81% | 1009.6 hPa | 33.53 mm | - | - | - |
| 1777355316 | 27.22° C | 82% | 1009.6 hPa | 34.8 mm | - | - | - |
| 1777355016 | 27.22° C | 83% | 1009.8 hPa | 37.08 mm | - | - | - |
| 1777354968 | 26.67° C | 83% | 1009.7 hPa | 37.08 mm | - | - | - |
| 1777354716 | 26.67° C | 83% | 1009.8 hPa | 36.83 mm | - | - | - |
| 1777354657 | 26.67° C | 83% | 1009.8 hPa | 35.56 mm | - | - | - |
| 1777354416 | 26.67° C | 83% | 1009.9 hPa | 34.8 mm | - | - | - |
| 1777354348 | 26.67° C | 83% | 1010.1 hPa | 34.29 mm | - | - | - |
| 1777354117 | 26.67° C | 83% | 1010 hPa | 35.56 mm | - | - | - |
| 1777354037 | 26.67° C | 83% | 1009.9 hPa | 35.81 mm | - | - | - |
| 1777353816 | 26.67° C | 83% | 1009.9 hPa | 36.07 mm | - | - | - |
| 1777353727 | 26.67° C | 83% | 1009.9 hPa | 36.83 mm | - | - | - |
| 1777353516 | 26.11° C | 83% | 1010.1 hPa | 39.88 mm | - | - | - |
| 1777353418 | 26.67° C | 83% | 1010.2 hPa | 40.13 mm | - | - | - |
| 1777353216 | 26.67° C | 83% | 1010.1 hPa | 40.64 mm | - | - | - |
| 1777353107 | 26.67° C | 83% | 1010.2 hPa | 41.15 mm | - | - | - |
| 1777352916 | 26.67° C | 82% | 1010.2 hPa | 42.67 mm | - | - | - |
| 1777352797 | 26.67° C | 82% | 1010.5 hPa | 43.43 mm | - | - | - |
| 1777352616 | 26.67° C | 82% | 1010.5 hPa | 42.67 mm | - | - | - |
| 1777352487 | 26.67° C | 81% | 1010.5 hPa | 42.67 mm | - | - | - |
* Rain latest hour (hover to see other rain measurements)
** Current wind speed in m/s (hover to see current wind gust speed)